Location: Pradons
(44.4746°N, 4.3578°E)
Time: 22:06:24
(UTC+00:00)

Cosmos 1980 Rocket - Pass Details

Date: 09 April 2020
Orbit: 828 x 851 km, 71.0° (Epoch: 05 June)

Event Time Altitude Azimuth Distance (km) Brightness Sun altitude
Rises 19:53:30 0° 345° (NNW) 3,386 6.0 -16.3°
Reaches altitude 10° 19:57:25 10° 12° (NNE) 2,453 4.8 -16.9°
Maximum altitude 20:00:03 13° 40° (NE) 2,225 4.3 -17.3°
Enters shadow 20:02:23 11° 66° (ENE) 2,408 4.2 -17.7°
